Regional Weather Roundup
Issued by NWS Kansas City/Pleasant Hill, MO

Home | Current Version | Previous Version | Graphics & Text | Print | Product List | Glossary Off
Versions: 1 2 3 4 5 6 7 8 9 10 11 12 13 14 15 16 17 18 19 20 21 22 23 24 25 26 27 28 29 30 31 32 33 34 35 36 37 38 39 40 41 42 43 44 45 46 47 48 49 50

000
ASUS43 KEAX 021010
RWREAX

WEATHER ROUNDUP FOR EASTERN KANSAS AND NORTHWEST MISSOURI
NATIONAL WEATHER SERVICE KANSAS CITY/PLEASANT HILL MO
500 AM CDT SUN AUG 02 2015

KSZ040-057-103>105-MOZ028-029-037-043-021100-
...KANSAS CITY METROPOLITAN AREA...

CITY           SKY/WX    TMP DP  RH WIND       PRES   REMARKS
K.C. INTL      CLEAR     71  67  87 SW7       29.91F
K.C. DOWNTOWN  CLEAR     76  67  73 SW5       29.91S
LEES SUMMIT    CLEAR     71  66  84 SW7       29.93F
OLATHE - IXD   PTCLDY    69  67  93 S5        29.94F
OLATHE - OJC   PTCLDY    70  67  90 S3        29.93F
LAWRENCE       PTCLDY    69  66  90 SE3       29.92F

$$

MOZ001>008-011>017-020>025-030>033-038>040-044>046-053-054-021100-
...NORTHERN AND CENTRAL MISSOURI...

CITY           SKY/WX    TMP DP  RH WIND       PRES   REMARKS
ST. JOSEPH     CLEAR     71  67  87 S7        29.89F
MOSBY          SUNNY     68  64  88 CALM      29.90F
WARRENSBURG    CLEAR     64  63  94 S3        29.92F
WHITEMAN AFB   CLEAR     66  65  95 S5        29.92F
CLINTON        CLEAR     66  66 100 CALM      29.94F
SEDALIA        CLEAR     67  64  90 S7        29.94F
WARSAW         NOT AVBL
CHILLICOTHE      N/A     67  63  87 CALM      29.91F
KIRKSVILLE     CLEAR     68  60  75 S7        29.92F

$$

MOZ041-047>049-056>058-063>065-088>090-097-021100-
...EASTERN AND SOUTHERN MISSOURI...

CITY           SKY/WX    TMP DP  RH WIND       PRES   REMARKS
ST. LOUIS INTL MOCLDY    77  69  76 SW5       29.95F
SPIRIT OF STL  PTCLDY    71  69  93 CALM      29.93F
COLUMBIA       CLEAR     67  66  97 S3        29.95S
JEFFERSON CITY CLEAR     67  66  97 CALM      29.94F
ROLLA          CLEAR     68  64  87 S8        29.96S
OSAGE BEACH    CLEAR     68  64  88 SE3       29.96S
SPRINGFIELD    PTCLDY    70  66  87 S5        29.97F
BRANSON        PTCLDY    70  64  83 CALM      30.01S
JOPLIN         PTCLDY    69  65  86 S8        29.97S
WEST PLAINS    PTCLDY    69  65  86 CALM      30.01S

$$

IAZ060-094-KSZ022-034>040-054-083-096-NEZ052-066-093-021100-
...KANSAS...SOUTHEAST NEBRASKA AND IOWA...

CITY           SKY/WX    TMP DP  RH WIND       PRES   REMARKS
TOPEKA         PTCLDY    75  68  78 SW3       29.92S
MANHATTAN      PTCLDY    74  70  87 SW8       29.91S
EMPORIA        CLEAR     70  66  87 S8        29.94S
CHANUTE        CLEAR     70  65  84 S8        29.96R
WICHITA        PTCLDY    72  67  84 S6        29.94S
OMAHA          CLOUDY    74  69  85 E3        29.86R
LINCOLN        MOCLDY    73  68  84 SW9       29.87F
FALLS CITY     CLEAR     72  68  87 S10       29.87F
LAMONI         MOCLDY    70  60  70 CALM      29.89R
DES MOINES     MOCLDY    74  60  61 SW13      29.83F

$$



USA.gov is the U.S. government's official web portal to all federal, state and local government web resources and services.